ONEWEB-0183 (48219 NORAD) Tracking and Keplerian Element Data

This shows tracking and keplerian element data for the satellite.

Feedback or suggestion? Click here.




ElementValue
Catalog48219
NameONEWEB-0183
Epoch Orbit174
Epoch Day170.58334491
Epoch Year2021
RAAN295.0127
Inclination87.5705
Eccentricity0.0009061
Argument of Perigee85.2915
Mean Anonmoly86.683
Mean Motion14.52052646
Decay Rate-0.01019958
L11 48219U 21031K 21170.58334491 -.01019958 00000-0 -27053+0 0 9990
L22 48219 87.5705 295.0127 0009061 85.2915 86.6830 14.52052646 1748

Live tracking and technical data element details for ONEWEB-0183 (NORAD 48219). ONEWEB-0183 can be tracked NOW for your location showing map with azimuth and elevation plus other details from your city location.

Track the satellite on the map from your city or location and see movement details for azimuth, elevation, latitude, longitude, range, height, and movement on the map or in text.







IsCatalogInMostPopularTable: catalog: 48219, numindb: 24
Update: records affected: 1



GetName: 48219 ONEWEB-0183

Hit Count: updated at: Mon, 21 Jun 2021 04:24:24 GMT